GFSFLT1_con_mucape_078.txt.gz
CAPE
61 16 61 0 108 89 37 11 0 5 3 1 12 11 3 3 1 4 1 0 27 74 61 81 79 103 80 4 12 2 0 0
160 132 81 15 101 94 8 3 3 0 4 0 1 0 0 11 4 0 0 0 20 57 75 84 75 65 49 5 25 3 5 0
232 215 102 5 24 34 7 12 2 0 0 1 1 1 0 3 5 6 9 0 23 43 56 65 97 95 33 75 27 48 29 13
220 332 258 0 12 0 4 14 14 3 3 0 0 0 4 9 0 0 1 1 42 49 82 77 76 57 104 76 74 81 54 16
213 386 348 72 5 0 0 4 6 3 6 3 0 0 0 2 7 3 5 2 17 25 52 83 97 97 102 112 159 171 161 67
107 391 385 279 42 13 0 0 6 10 0 1 6 5 5 0 4 1 6 5 16 30 11 48 63 85 104 118 157 198 139 101
23 422 405 295 85 4 0 0 9 9 0 3 10 53 3 0 2 1 6 0 5 1 14 10 45 73 97 152 160 178 135 79
4 344 361 311 141 12 10 0 5 9 14 6 0 0 0 0 0 6 3 1 4 1 0 4 7 35 55 88 100 109 64 26
2 185 408 383 262 38 0 0 0 2 3 5 3 3 9 2 0 2 0 0 1 1 10 9 7 1 5 5 4 43 37 45
0 23 462 441 366 75 0 0 0 0 2 3 13 4 21 10 4 4 0 0 6 5 11 2 6 2 0 1 7 4 15 29
36 26 519 497 473 261 57 0 0 19 2 0 3 28 11 6 14 4 3 0 0 0 0 0 2 4 8 7 7 2 0 12
8 57 356 600 596 440 186 43 0 3 39 11 0 1 5 5 26 16 4 10 0 0 0 0 0 0 7 8 14 9 2 9
30 37 216 470 602 553 400 192 23 2 11 32 25 29 10 8 28 5 7 8 7 0 0 0 0 0 0 2 4 7 0 7
1 0 93 199 554 557 563 377 207 57 14 47 51 37 49 46 43 55 29 31 1 4 0 4 0 0 0 0 0 0 4 13
4 0 0 178 341 588 548 586 394 216 126 50 60 64 65 52 31 43 118 72 49 27 1 3 0 0 0 0 0 0 0 0
0 0 0 1 25 556 547 562 624 394 237 171 70 92 111 102 70 62 63 64 84 37 26 5 0 0 0 0 0 0 0 0
1 0 2 5 14 3 147 539 580 596 443 370 211 102 84 141 138 94 73 58 63 78 75 49 36 9 12 2 0 0 1 10
0 0 0 2 27 45 0 39 318 591 621 550 440 279 161 136 173 131 117 88 61 68 77 69 64 80 95 84 92 82 6 7
0 0 0 11 35 24 13 15 0 64 609 631 593 512 359 281 202 171 158 130 102 82 57 65 60 73 102 120 129 108 67 49

GFSFLT1_con_mucape_081.txt.gz
CAPE
0 0 0 60 26 15 5 7 25 22 9 4 7 5 2 0 20 7 9 1 5 3 14 45 42 36 0 13 9 0 0 0
7 8 0 0 0 0 0 51 0 35 12 0 5 0 3 3 19 12 7 1 5 20 3 41 86 73 5 19 8 0 0 0
35 15 13 0 0 0 0 1 7 7 2 6 5 1 0 1 10 16 14 11 8 9 10 22 34 53 42 21 7 0 0 0
37 29 27 0 0 0 0 1 2 3 3 6 0 0 0 0 3 9 10 3 4 3 6 18 37 35 34 38 8 5 0 0
60 48 23 25 0 0 0 0 0 1 7 0 1 0 7 0 0 0 1 11 10 3 1 2 7 33 50 23 19 0 7 0
77 51 37 46 31 0 0 0 3 6 0 0 3 0 0 0 0 4 2 4 17 6 1 10 24 46 44 48 13 38 34 2
108 78 89 96 79 6 0 0 4 1 0 0 2 2 0 2 0 0 16 11 10 0 2 2 0 48 59 36 73 100 73 57
117 149 170 171 146 64 0 0 0 2 3 3 2 1 3 2 1 0 19 14 5 6 0 8 5 36 55 82 96 99 117 95
169 220 228 236 185 120 44 0 0 0 4 2 2 5 1 1 6 5 6 13 15 18 6 1 10 28 63 115 126 129 122 89
249 288 289 263 211 148 98 36 0 0 1 0 1 0 0 0 4 5 1 0 6 20 12 8 2 14 38 72 104 96 86 49
87 340 315 250 232 181 144 111 25 0 0 0 4 0 0 2 1 3 1 3 0 1 3 5 6 14 23 14 25 59 78 45
22 54 313 284 284 252 187 165 122 2 0 0 1 7 7 9 2 4 2 3 0 0 0 0 0 1 4 12 9 5 6 5
0 1 286 352 321 299 268 224 208 158 0 0 0 0 0 4 4 1 6 3 2 2 0 0 0 0 0 0 0 0 0 2
0 0 0 369 430 373 320 284 260 235 198 25 6 0 0 0 0 1 4 3 2 1 2 0 0 0 0 0 0 0 0 0
1 0 0 9 28 384 394 355 307 273 290 247 37 20 6 0 0 0 0 0 0 13 18 1 0 0 0 0 0 0 0 0
1 0 0 0 0 47 180 368 506 422 317 299 291 174 34 32 34 28 2 0 0 1 13 30 41 38 5 0 0 0 0 0
0 0 0 1 0 0 0 34 302 475 479 403 328 279 208 86 59 64 57 55 55 45 26 14 29 46 74 63 30 1 0 0
0 0 0 0 0 2 1 0 48 73 139 451 440 314 253 228 186 156 125 68 52 79 99 86 72 64 55 58 65 65 71 70
0 0 0 0 0 0 0 1 2 8 4 20 167 397 456 362 306 274 262 199 137 90 80 111 122 119 108 79 55 43 47 61

GFSFLT1_con_mucape_084.txt.gz
CAPE
0 17 238 345 179 114 77 47 7 5 0 3 1 7 0 21 18 36 56 27 8 8 10 1 0 0 0 0 0 0 0 0
31 33 129 141 103 47 0 0 3 2 3 1 19 0 1 14 41 53 53 19 14 4 8 6 0 0 3 6 0 0 7 3
47 27 61 76 62 26 0 0 5 10 4 3 0 0 0 7 20 13 25 9 7 18 3 1 8 7 20 20 22 5 3 14
38 35 49 41 58 29 0 0 5 4 1 10 4 0 0 0 6 8 24 6 6 7 8 14 1 16 11 30 29 8 6 13
47 52 56 70 65 47 0 0 5 7 4 3 3 0 0 0 0 12 15 4 8 21 11 2 32 34 52 54 37 28 13 8
13 60 72 83 57 60 0 0 1 0 5 3 3 4 0 0 0 0 2 6 9 2 12 8 30 53 76 56 48 47 8 1
2 67 74 108 64 64 6 0 1 1 18 3 3 0 0 1 0 0 0 2 5 11 2 2 4 43 45 42 33 26 55 11
3 59 108 126 82 68 36 0 0 2 11 6 4 5 0 0 0 0 4 1 8 12 1 6 6 5 26 30 0 30 41 33
57 75 118 137 96 82 65 0 0 0 4 9 2 6 0 0 2 0 0 0 4 1 3 0 3 0 0 17 54 63 69 45
84 107 141 148 152 133 108 20 0 0 0 6 9 4 2 1 2 3 0 0 6 21 10 12 1 8 24 36 38 43 64 76
87 141 193 199 219 213 154 91 12 0 0 0 6 3 3 2 3 2 2 1 0 6 10 10 15 11 10 31 46 61 66 70
130 205 293 305 280 272 201 135 100 55 3 0 0 0 3 7 1 0 4 2 5 3 3 0 1 0 1 3 7 10 14 20
66 330 321 312 292 349 301 210 164 164 135 32 0 2 0 1 2 2 5 1 1 7 2 0 0 0 0 0 0 0 0 6
116 236 279 414 380 341 269 303 218 217 234 209 173 33 1 0 3 8 5 1 3 3 3 0 0 0 0 0 0 0 0 0
12 9 42 88 198 351 335 305 324 240 241 215 227 260 173 19 0 0 2 1 3 2 1 1 0 0 0 0 0 0 0 0
0 2 0 14 14 41 69 121 140 250 327 283 292 302 217 130 125 51 0 0 0 0 0 1 2 1 2 4 0 3 0 0
0 0 0 0 0 0 0 0 3 20 156 324 235 218 321 356 257 175 104 67 5 0 0 0 0 0 3 15 19 26 0 0
0 0 0 0 0 0 0 0 0 0 22 76 160 196 165 214 185 186 213 232 173 141 135 97 50 19 30 25 18 17 27 40
0 0 0 0 0 0 0 0 0 0 0 1 6 41 114 229 212 144 154 197 196 209 180 193 193 204 169 116 87 47 36 27

GFSFLT1_con_mucape_087.txt.gz
CAPE
0 36 167 328 375 283 248 100 40 10 0 0 3 9 14 23 26 30 39 52 72 49 5 20 0 0 0 0 3 2 4 12
0 31 214 326 370 285 123 49 19 0 0 0 2 7 10 8 37 7 34 55 62 13 16 11 0 0 0 0 0 6 4 0
0 75 232 324 342 437 72 8 4 0 0 0 0 5 4 4 3 16 29 55 27 20 3 17 4 0 0 0 0 9 4 0
0 58 202 250 238 204 118 0 1 0 0 1 0 1 0 0 7 18 31 42 31 36 8 12 9 0 0 5 0 3 3 1
0 9 102 170 119 81 44 0 8 0 0 0 2 0 0 0 3 4 7 10 38 15 9 7 15 2 2 0 26 20 18 23
0 66 94 75 60 63 52 24 6 3 0 0 0 2 0 0 0 3 5 13 38 5 7 16 21 18 4 7 0 66 75 35
0 37 55 58 47 63 65 32 3 2 3 0 0 0 0 2 1 0 0 21 14 5 33 17 8 5 1 1 2 58 77 45
0 0 38 77 63 73 83 41 18 2 10 6 2 2 0 1 1 0 0 0 3 13 2 1 17 10 5 12 25 74 66 46
0 6 10 92 102 106 88 60 31 0 2 3 2 0 0 0 0 0 0 1 2 14 0 0 4 12 11 26 34 29 44 21
0 0 8 61 140 160 150 69 44 2 4 3 6 3 1 0 0 0 0 0 0 1 6 4 1 7 18 14 22 0 11 0
0 0 18 54 172 190 173 108 74 0 2 3 3 1 1 1 1 0 0 0 0 0 8 9 14 13 17 9 3 25 5 11
67 34 5 51 169 206 189 154 136 37 0 1 2 1 4 3 1 2 2 1 0 0 0 2 1 3 12 10 6 7 8 15
179 123 92 116 206 261 188 183 179 100 100 27 0 1 6 7 2 2 3 3 4 2 1 0 0 2 0 1 6 9 8 15
314 309 278 245 237 209 202 224 202 208 189 164 154 149 85 11 5 3 5 7 4 4 2 2 0 0 0 0 0 0 0 0
313 369 379 355 332 292 268 227 226 250 229 259 208 144 170 145 67 5 0 0 3 0 4 3 2 4 0 0 0 0 0 0
52 89 97 95 129 105 85 112 183 282 278 159 174 109 155 164 119 105 93 64 7 0 0 1 1 1 3 3 1 0 0 0
16 30 32 19 11 10 0 0 1 57 111 110 74 50 78 67 52 118 135 139 116 107 101 61 17 0 0 0 0 0 0 0
0 0 3 0 0 0 0 0 0 0 4 12 59 122 83 126 76 96 111 93 99 84 100 97 115 135 109 89 75 26 2 0
0 0 0 0 0 0 0 0 0 0 0 0 0 6 6 21 76 119 146 100 65 60 69 105 108 118 178 178 146 129 105 83

GFSFLT1_con_mucape_090.txt.gz
CAPE
0 0 0 19 107 367 414 278 332 235 40 3 3 154 19 17 14 41 42 27 75 43 60 70 80 17 11 11 0 0 1 0
0 0 0 35 115 385 420 265 159 28 0 0 3 5 7 32 6 11 23 47 38 64 57 76 56 11 33 7 0 8 13 3
0 0 20 85 114 399 388 219 82 18 0 0 0 7 11 8 9 12 29 11 29 56 51 78 38 1 39 14 0 2 5 13
0 0 35 89 115 284 352 221 56 13 2 1 0 3 1 0 3 13 8 8 9 17 40 19 6 7 0 0 0 8 3 17
0 0 56 113 121 224 290 267 40 0 0 0 0 0 0 0 0 0 19 1 24 49 43 22 27 12 5 0 13 28 15 8
0 0 51 129 118 255 320 252 95 23 1 1 1 0 0 0 3 0 15 9 12 5 40 13 10 16 12 0 0 12 12 19
0 0 7 60 105 216 325 206 36 26 1 5 1 0 0 0 0 0 1 10 0 22 19 6 16 8 7 0 1 0 34 31
0 0 1 26 37 187 241 108 39 42 7 3 1 0 0 0 0 0 0 2 1 6 4 11 5 5 15 9 0 0 0 16
0 0 0 29 17 128 95 71 61 55 7 2 4 0 0 0 4 2 0 0 0 14 15 14 27 11 6 16 3 0 6 0
0 0 0 17 18 45 110 80 68 71 31 1 3 5 0 0 0 2 2 0 0 12 17 25 5 6 16 2 17 14 4 2
0 0 0 12 12 20 112 94 93 75 50 1 3 5 2 1 0 1 0 0 0 0 9 6 0 0 1 3 10 6 3 4
0 0 0 13 4 2 69 100 112 93 67 0 1 5 1 4 3 0 0 0 0 0 0 0 0 0 5 9 28 7 2 19
125 2 1 12 11 2 68 118 167 130 82 0 3 4 1 5 1 4 3 1 0 0 0 0 0 0 0 8 5 11 4 0
265 156 46 18 9 4 44 136 140 135 127 115 95 27 3 1 3 1 6 1 2 1 0 0 0 0 0 0 0 0 0 0
338 335 227 148 94 98 130 164 124 146 201 156 184 149 137 103 73 37 3 1 3 6 5 2 3 0 0 0 1 2 2 0
485 306 215 199 198 174 167 185 203 166 95 84 78 73 77 84 76 65 63 84 39 4 0 0 0 0 1 0 0 0 0 0
77 78 107 85 93 83 97 27 33 78 180 73 67 47 88 93 112 62 69 76 75 62 94 83 64 68 64 54 32 6 0 1
15 18 44 46 16 7 0 0 0 0 7 16 52 68 38 46 58 63 26 30 24 40 53 63 70 84 97 88 79 87 103 99
0 0 0 3 0 0 0 0 0 0 0 1 13 28 51 20 46 38 64 119 99 103 121 35 11 78 28 34 28 26 61 68

GFSFLT1_con_mucape_093.txt.gz
CAPE
0 0 0 0 139 345 444 201 360 214 318 295 428 66 31 34 29 67 43 23 38 29 11 19 46 7 46 57 132 96 68 0
0 0 0 0 74 335 365 200 268 163 167 113 78 3 15 25 29 73 20 1 27 34 7 13 9 15 20 53 77 27 30 0
0 0 0 0 32 276 137 147 293 167 179 14 0 0 3 19 16 8 30 9 27 30 7 32 35 45 38 42 37 10 7 0
0 0 0 0 57 223 23 104 307 188 90 0 0 10 3 14 28 33 50 23 31 41 44 40 32 22 7 4 9 12 0 4
0 0 0 30 104 248 25 77 320 206 40 0 1 3 8 12 0 0 3 3 11 27 20 34 32 25 0 5 29 9 11 11
0 0 0 34 176 339 33 96 307 216 28 0 0 4 2 15 0 5 12 12 4 7 38 20 32 23 2 1 29 17 13 43
0 0 0 49 236 329 40 53 282 184 10 0 3 1 2 23 0 0 1 10 3 3 15 7 15 15 12 6 5 4 1 42
0 0 0 92 288 95 45 64 215 123 1 2 1 1 1 13 0 0 0 1 3 3 23 16 36 11 21 21 9 0 2 0
0 0 0 162 335 98 73 81 227 131 15 0 4 2 9 17 4 0 0 3 7 4 22 22 9 9 10 7 18 9 20 0
0 0 0 122 351 208 34 274 247 144 33 0 4 2 9 13 0 0 0 0 3 6 19 66 9 10 12 10 6 3 5 1
0 0 0 87 285 68 81 253 255 131 48 18 4 2 3 8 0 0 4 8 7 0 27 36 27 21 32 26 4 0 1 18
9 12 6 79 166 14 147 409 227 108 84 39 6 10 4 5 0 0 0 7 0 0 0 28 22 25 13 32 16 3 6 9
92 64 61 66 15 13 214 150 194 156 146 65 0 11 0 5 12 7 0 0 0 0 2 5 2 4 0 0 0 4 9 10
233 202 235 191 164 189 322 136 182 165 137 91 0 0 3 3 19 12 4 2 3 0 0 0 1 2 5 0 0 0 3 4
250 258 65 32 46 192 165 254 236 185 178 131 106 54 23 5 5 13 16 11 3 3 2 1 0 0 1 0 0 1 7 4
132 274 140 63 154 380 226 407 194 188 136 169 129 104 105 95 78 45 32 27 5 14 10 4 2 1 1 2 0 0 1 2
0 41 188 230 244 153 160 212 206 178 152 156 32 42 76 82 78 73 46 40 40 71 53 37 13 7 5 0 0 1 0 0
8 8 49 52 68 99 138 115 137 105 65 20 13 11 11 12 43 69 48 42 36 62 48 60 69 41 51 49 45 32 89 139
0 0 1 5 16 41 64 101 95 71 0 0 11 25 29 49 72 84 82 49 102 70 58 32 12 11 33 40 40 33 57 127

GFSFLT1_con_mucape_096.txt.gz
CAPE
0 0 0 0 9 600 1180 1372 908 537 479 247 403 327 304 224 291 237 273 187 76 54 84 50 26 49 22 10 130 183 241 155
0 0 0 0 0 213 948 1371 828 497 224 342 397 210 177 158 380 158 192 50 51 6 60 57 43 41 6 16 163 158 186 167
0 0 0 0 0 111 764 1245 486 404 502 515 156 156 192 81 102 64 112 31 4 41 31 9 33 3 14 21 174 136 114 135
0 0 0 0 3 210 577 1099 247 346 704 445 72 15 7 33 68 20 4 10 3 28 36 26 15 8 7 72 145 130 104 122
0 0 0 0 21 225 498 867 292 234 514 436 285 23 5 21 5 35 16 2 1 25 7 11 10 24 11 16 83 167 114 110
0 0 0 0 7 390 580 396 471 150 243 569 293 170 1 24 12 42 38 6 34 24 13 5 19 35 39 67 116 165 128 113
0 0 0 0 6 547 764 171 385 133 273 311 292 65 1 26 15 39 1 0 3 0 32 24 31 38 46 29 27 25 27 102
0 0 0 0 107 714 592 269 378 128 284 229 39 11 4 30 19 25 3 1 6 1 36 16 36 48 52 34 6 52 65 1
0 0 2 0 81 731 385 741 236 138 252 249 33 3 1 30 13 30 22 0 1 1 3 37 13 32 30 17 0 7 26 0
0 0 47 116 51 732 352 588 316 502 204 221 23 5 4 14 22 18 34 17 0 7 1 23 11 5 3 8 8 14 5 6
0 0 37 3 97 678 426 375 299 224 170 152 34 0 4 14 29 23 14 39 5 7 1 10 19 4 8 12 10 7 3 6
0 15 2 23 288 432 545 370 372 137 200 137 68 0 4 7 21 24 0 1 3 2 0 3 14 11 5 16 16 15 4 0
0 7 54 104 113 588 404 148 326 348 199 147 98 0 5 4 14 21 8 0 1 2 16 2 0 0 26 13 31 6 3 1
5 296 65 39 37 48 66 106 383 461 255 149 124 20 5 11 13 39 27 30 20 23 31 21 0 1 11 11 0 0 0 0
10 59 136 151 314 154 122 244 358 361 251 166 147 1 7 5 25 37 21 12 32 36 35 46 45 37 37 60 56 67 53 0
10 74 232 283 331 400 305 286 283 185 237 182 141 41 4 11 40 34 31 31 11 13 21 9 14 41 16 13 15 12 10 6
0 27 125 172 181 242 181 316 308 224 322 259 184 93 29 13 11 17 12 2 5 35 44 47 42 18 3 3 4 45 25 12
0 1 0 33 65 106 76 13 197 215 269 291 334 118 52 65 88 114 55 50 53 55 47 28 38 8 10 16 10 5 8 39
0 0 0 0 2 0 12 0 184 184 227 190 167 156 36 20 34 41 74 80 85 92 132 167 120 122 74 54 55 57 69 76

GFSFLT1_con_mucape_099.txt.gz
CAPE
0 0 0 0 0 0 632 1776 2017 1532 1376 1054 778 1246 572 661 794 325 282 660 526 553 549 209 188 142 151 57 106 72 128 114
0 0 0 0 0 0 474 1626 2149 1437 1563 1014 765 758 626 565 449 529 419 461 432 267 55 14 95 30 22 19 111 52 70 182
0 0 0 0 0 0 33 917 1654 1531 1424 810 814 652 557 769 498 331 235 405 332 112 29 15 49 46 29 25 27 94 154 132
0 0 0 0 0 0 0 256 1213 1459 1018 1040 984 823 451 482 422 382 389 278 200 34 4 36 20 18 21 30 12 50 103 142
0 0 0 0 0 0 0 107 842 1268 1207 1234 1182 715 502 274 363 71 79 18 1 1 3 17 47 18 36 30 11 48 101 106
11 1 0 0 0 0 96 257 841 1010 1281 1382 1223 980 620 283 36 50 2 0 0 0 0 1 13 7 4 6 44 114 171 132
11 7 1 0 0 0 241 575 1269 820 924 1376 1192 1047 682 144 4 77 67 0 1 0 0 3 10 31 13 9 140 168 146 122
1 1 2 0 33 0 156 776 993 572 621 1143 1265 1097 617 122 80 34 14 0 2 14 9 0 4 7 18 22 50 76 153 168
0 0 2 1 66 3 251 961 551 266 739 1116 1160 1007 485 78 29 34 22 5 1 0 6 1 25 23 23 11 38 40 59 55
0 0 0 0 4 110 504 770 408 74 808 1025 1027 818 350 35 33 70 22 23 0 2 9 2 2 22 45 54 51 33 30 29
0 0 0 0 0 72 857 725 467 409 596 717 548 639 80 69 161 74 41 70 7 3 0 1 16 5 22 25 29 0 0 4
0 0 2 2 28 278 863 577 479 722 605 726 597 421 102 52 100 93 31 26 19 0 2 1 8 15 10 2 6 14 1 0
0 0 3 9 230 415 438 495 719 754 605 564 445 144 27 40 60 63 15 30 44 26 5 1 0 8 11 7 2 4 20 13
0 0 12 18 242 231 147 274 527 532 584 596 352 148 74 23 116 72 24 19 22 35 31 0 0 1 50 8 8 5 12 6
0 0 4 239 130 33 165 55 81 353 703 277 316 195 119 29 41 60 58 26 26 26 38 25 1 0 0 2 5 0 5 1
0 0 8 107 103 134 250 292 233 289 554 559 308 262 105 13 8 86 25 32 36 56 51 51 42 44 2 2 3 8 3 1
0 0 0 140 171 210 218 274 262 351 467 478 282 305 145 10 10 27 25 5 4 6 4 5 7 12 11 13 17 6 11 13
0 0 0 0 1 44 157 296 426 415 466 489 358 232 219 77 24 51 13 5 7 8 5 4 7 2 4 2 4 6 11 24
0 0 0 0 2 0 13 31 278 321 356 339 419 351 206 124 37 0 29 27 13 7 7 33 13 5 9 16 12 13 13 13

GFSFLT1_con_mucape_102.txt.gz
CAPE
0 0 0 0 0 3 2359 2288 1702 1257 1139 1651 1280 1315 880 751 745 631 518 724 623 602 344 249 172 232 199 195 74 79 41 34
0 0 0 0 0 71 1642 2385 2128 1649 1018 973 1312 826 705 354 561 673 411 389 334 295 193 155 157 200 90 143 65 95 61 38
0 0 0 0 0 0 100 1904 2296 1740 1523 889 1165 985 442 309 377 504 393 393 381 227 74 38 101 73 69 78 50 30 52 23
0 5 12 35 59 75 0 481 1966 1950 1581 898 755 817 474 681 574 472 523 267 282 142 41 2 10 50 59 54 39 15 9 9
8 5 2 6 1 0 2 0 555 1884 1632 1098 811 728 639 455 487 371 426 267 178 53 7 6 10 5 6 41 39 10 19 0
0 0 0 0 0 0 10 0 2 1629 1521 1316 918 977 708 512 358 331 214 63 0 0 0 2 0 12 34 61 44 41 40 5
0 0 0 0 0 0 42 229 79 1604 1419 1232 1156 1167 774 532 343 236 31 1 0 0 0 0 0 12 35 25 5 15 37 12
1 0 0 0 0 0 0 24 134 1394 1363 1278 1450 1180 1135 664 313 70 45 1 2 0 0 0 3 8 12 11 19 29 2 21
2 0 0 0 0 0 0 5 338 1134 1049 1107 1340 1207 1139 632 335 177 56 1 11 0 1 0 2 4 9 4 12 9 18 31
0 0 0 0 0 0 0 6 413 929 888 620 1067 1154 1051 678 313 215 23 0 10 0 6 1 3 0 2 8 12 6 31 41
0 0 0 1 2 0 17 16 764 859 612 503 603 1086 1120 595 145 90 29 0 7 1 0 7 4 1 4 17 12 11 27 43
0 0 0 5 25 55 521 586 734 714 633 350 407 1138 923 506 117 113 31 5 0 2 1 9 13 3 12 1 3 16 26 27
0 0 0 2 47 269 418 356 490 521 249 68 371 942 928 350 156 103 64 64 0 0 1 8 7 18 11 5 6 0 24 1
0 0 0 12 14 88 123 96 266 140 204 630 703 746 568 367 117 77 46 72 10 2 3 2 10 5 8 31 18 6 7 0
0 0 0 9 9 31 55 125 248 50 221 383 636 628 555 413 122 85 157 158 72 15 3 6 13 17 18 7 20 2 23 5
0 0 0 12 21 12 26 14 23 31 18 305 368 399 406 265 147 135 51 59 18 7 8 5 1 9 9 26 16 3 14 15
0 0 0 0 21 6 29 24 27 36 56 57 284 262 538 281 217 171 94 95 106 89 134 13 13 0 0 6 3 7 11 26
0 0 0 0 0 0 0 32 41 84 145 260 312 289 572 268 263 219 408 42 50 52 50 26 24 25 17 7 8 15 14 20
0 0 0 0 0 0 0 0 15 43 150 283 306 471 414 489 215 218 59 6 10 19 35 12 14 26 16 7 14 22 20 4

GFSFLT1_con_mucape_105.txt.gz
CAPE
0 0 0 0 0 1665 1783 1841 1762 1497 1590 1884 1713 1454 1113 1028 985 663 568 536 630 715 564 443 296 158 199 195 144 63 53 29
0 0 0 0 0 1709 1891 1815 1779 1572 1243 1829 1587 1326 1016 652 729 826 785 623 606 517 462 396 322 239 167 170 137 67 12 26
0 0 0 0 0 1051 1896 1772 1722 1520 907 1527 1365 1122 1027 797 512 603 582 526 479 502 509 369 242 134 105 124 126 73 38 31
0 0 0 0 0 61 1944 1800 1626 1502 1208 1005 1192 858 696 1002 598 346 459 442 435 251 231 270 94 55 66 105 106 92 45 22
6 0 0 0 0 0 0 1897 1703 1497 1420 1119 709 408 330 410 187 350 229 305 225 257 269 90 4 12 80 64 93 89 38 18
8 0 0 0 0 0 0 0 825 1703 1530 1270 933 689 306 353 433 299 316 438 338 245 128 28 1 9 3 8 52 78 38 28
8 0 0 0 0 0 0 0 0 430 1312 1381 1088 737 469 448 353 338 291 307 289 147 27 151 94 0 1 17 67 23 35 28
5 12 2 0 0 0 0 0 0 0 1106 1222 1330 1112 877 699 574 501 270 239 176 92 60 47 5 0 0 5 7 49 17 30
1 1 0 0 0 0 0 0 0 1 1074 1189 1358 1233 930 883 706 581 274 276 125 1 4 0 0 0 0 3 29 27 35 25
0 0 0 0 0 0 0 0 0 0 763 1345 1215 1126 911 889 710 597 507 289 1 2 2 0 0 0 0 3 2 8 31 19
0 0 0 0 0 2 0 0 0 0 270 1384 1157 981 1091 977 863 662 510 311 0 6 0 0 0 0 0 1 16 11 15 16
0 0 0 0 2 9 44 227 46 203 904 964 791 830 883 742 708 630 451 331 2 4 2 1 0 0 0 1 1 15 23 32
0 0 0 0 5 10 143 445 392 421 503 546 390 286 713 739 791 943 576 86 1 4 7 2 0 0 0 1 2 3 20 8
0 0 0 2 4 14 69 107 136 121 259 87 61 336 644 427 704 1097 398 53 5 0 23 3 6 4 2 1 2 0 4 1
0 0 0 1 6 23 35 69 38 17 113 70 64 149 276 489 602 589 261 96 83 28 2 11 0 0 3 25 0 12 3 2
0 0 0 0 12 15 23 11 33 100 99 57 70 100 321 359 441 258 152 95 112 27 4 19 4 7 5 0 2 11 27 13
0 0 0 0 0 5 10 3 4 3 17 36 36 90 241 264 126 139 209 131 59 49 22 2 5 2 2 2 6 28 15 4
0 0 0 0 0 0 0 0 0 24 20 45 38 77 123 289 171 243 389 213 54 19 60 32 10 4 9 12 14 9 26 19
0 0 0 0 0 0 0 0 0 0 12 25 46 82 109 139 231 152 313 92 128 71 25 17 9 39 11 8 7 13 10 11

GFSFLT1_con_mucape_108.txt.gz
CAPE
0 0 0 0 0 1426 1835 1949 1959 1724 1631 1813 1721 1394 1264 1049 1029 1006 740 819 600 603 488 341 276 203 182 148 138 146 116 119
0 0 0 0 0 876 1496 1651 1795 1792 1673 1634 1712 1411 1154 962 807 837 632 831 918 603 534 394 305 230 153 133 79 140 187 80
0 0 0 0 0 504 1331 1534 1635 1723 1573 1635 1570 1505 1346 1344 1010 1122 734 499 683 858 705 556 404 293 305 191 74 69 84 56
0 0 0 0 0 864 1552 1517 1464 1581 1717 1604 1393 1432 1493 1262 893 792 797 638 454 397 502 565 527 460 371 275 179 121 79 41
0 0 0 0 0 220 1104 1840 1641 1536 1636 1456 1391 1221 1256 971 748 600 661 748 649 468 353 307 301 296 234 84 190 114 105 66
7 0 0 0 0 0 44 1156 2148 1674 1473 1334 1376 1205 1022 782 591 514 476 472 468 481 388 198 151 175 20 7 441 120 76 31
0 0 7 9 3 0 0 36 714 1233 1419 1394 1145 1029 955 687 424 406 101 138 96 343 438 174 171 52 4 7 107 64 65 72
0 0 4 16 7 5 0 0 0 3 43 933 1379 1241 924 662 499 303 137 196 96 478 811 541 154 182 17 12 29 41 61 55
2 1 10 4 2 1 1 0 0 0 0 34 938 1197 1174 917 638 538 511 336 161 320 365 351 212 129 4 11 29 13 46 22
0 0 0 0 0 0 0 0 0 0 0 0 442 1389 1071 1090 959 956 755 550 408 292 155 488 188 5 2 7 0 6 7 25
1 0 0 0 0 0 0 0 0 0 0 0 22 1089 1008 1030 1090 937 864 686 506 349 208 59 0 8 0 0 8 22 20 4
0 0 0 0 0 0 0 4 10 14 4 124 374 952 927 883 815 899 986 769 494 395 265 0 38 0 0 3 1 1 5 4
0 0 0 0 0 0 0 26 48 73 298 561 868 1039 777 747 786 820 1037 1005 341 373 360 1 10 14 0 32 1 2 2 3
0 0 0 0 0 1 4 31 37 155 230 336 470 525 343 267 666 668 551 672 362 487 314 8 2 12 0 0 34 3 1 20
0 0 0 0 0 12 11 7 8 21 57 117 70 74 105 86 342 547 571 512 155 339 84 3 6 24 5 5 10 28 0 11
0 0 0 0 0 1 10 9 16 6 6 11 44 76 82 92 162 69 143 210 53 89 36 2 24 40 37 19 17 11 8 1
0 0 0 0 0 0 6 2 7 4 14 21 29 32 37 46 8 113 92 99 196 25 53 2 19 61 16 14 14 3 20 17
0 0 0 0 0 0 0 1 1 0 4 1 1 6 23 61 65 57 34 54 115 28 58 40 14 5 10 10 16 8 26 10
0 0 0 0 0 0 0 0 0 0 0 4 7 3 9 16 36 24 32 56 43 13 36 79 5 8 3 5 13 15 28 23

GFSFLT1_con_mucape_111.txt.gz
CAPE
0 0 0 1001 1916 2115 2266 2104 2034 1984 1779 1734 1761 1657 1252 1117 1003 957 888 807 615 418 432 388 380 287 225 218 135 93 75 89
0 0 0 1 2 1607 1978 2077 2102 2031 2065 1714 1706 1947 1559 1300 1154 1074 1068 779 724 712 526 438 373 346 361 384 111 94 69 215
0 0 0 0 0 0 638 1757 1867 1920 2035 2016 1450 1668 1718 1509 1411 1077 1064 874 796 789 698 616 549 427 376 324 149 263 215 277
0 0 0 0 0 0 582 1425 1605 1738 1820 1843 1654 1411 1525 1465 1303 1129 1089 995 769 867 766 623 572 462 339 253 251 328 96 27
0 0 0 0 1 432 1043 1437 1507 1514 1701 1691 1713 1500 1113 1212 1195 1089 1041 849 733 656 878 812 567 527 721 383 101 102 83 10
0 0 0 0 17 441 1157 1608 1469 1555 1899 1798 1735 1622 1196 1080 1090 1163 1168 999 985 596 452 497 639 602 443 274 296 222 178 72
13 0 0 0 10 65 626 1277 1398 1632 1947 1930 1814 1587 1451 1153 1003 1143 1052 807 804 717 933 776 542 244 166 346 29 186 218 20
106 41 27 35 23 1 38 434 1168 1268 1398 1724 1744 1368 1340 1278 1021 955 892 693 650 424 247 571 711 611 466 103 33 51 26 13
172 130 88 32 5 4 5 9 22 161 587 579 744 1273 1302 1264 1097 1007 859 620 563 351 209 171 236 447 434 275 105 5 8 4
47 86 33 69 19 12 8 7 7 4 4 3 0 8 868 966 1063 959 967 793 531 456 323 129 149 374 447 294 65 6 11 28
62 52 74 49 6 0 0 0 2 0 0 0 0 0 19 777 783 816 913 868 666 633 419 281 138 241 571 159 49 7 8 5
83 34 14 4 2 3 0 0 0 0 20 42 1 7 2 633 565 836 663 714 705 620 545 341 159 242 154 75 6 1 0 8
0 0 1 0 0 0 0 0 0 13 9 97 57 39 242 412 1142 1044 667 627 658 691 529 428 297 190 2 34 0 0 2 12
0 0 0 0 0 0 0 0 0 5 2 23 61 109 465 653 600 587 502 467 533 712 568 350 333 237 1 63 0 1 1 5
0 0 0 0 0 0 0 2 1 12 3 25 66 98 83 266 204 192 175 327 370 582 649 455 184 206 20 23 3 0 6 4
0 0 0 0 0 0 0 2 5 3 0 0 11 69 61 88 78 64 113 108 382 528 422 377 76 66 0 44 3 0 9 3
0 0 0 0 0 0 0 0 0 1 8 0 5 2 10 21 26 15 47 17 131 318 78 200 36 75 3 6 8 22 7 10
0 0 0 0 0 0 0 0 0 0 0 0 0 2 11 13 2 0 29 38 4 15 8 38 3 17 34 20 21 36 19 9
0 0 0 0 0 0 0 0 0 0 0 0 4 3 1 13 1 0 5 7 26 38 10 36 51 64 60 6 6 29 29 15

GFSFLT1_con_mucape_114.txt.gz
CAPE
0 0 0 1057 1509 1650 1749 1854 1741 1573 1377 1087 854 637 547 551 464 487 640 984 1013 903 775 634 524 517 450 262 169 96 39 88
0 0 0 0 1107 1567 1838 1978 1924 1884 1805 1649 1552 1127 958 822 701 585 579 701 838 791 712 531 481 462 427 302 262 163 227 109
0 0 0 0 0 769 1655 2111 2035 1971 2042 1894 1619 1303 1310 1152 1031 917 843 757 706 693 580 438 406 404 385 369 256 221 198 102
0 0 0 0 0 0 0 1349 2094 2061 1998 1898 1832 1692 1577 1240 1472 1137 1107 1007 953 844 628 584 470 407 377 365 317 495 147 38
0 0 0 0 0 0 35 869 1700 1756 1900 1861 1821 1729 1457 1412 1363 1374 1336 1168 1084 943 696 706 552 767 986 481 331 143 141 54
0 0 0 0 5 46 297 404 898 1342 1680 1759 2271 2035 1646 1559 1386 1426 1356 1305 1115 1059 970 681 451 615 755 562 126 102 81 21
13 0 0 0 65 257 342 377 893 875 948 1697 1697 1950 1799 1538 1500 1217 1201 1171 1030 1056 956 964 826 673 464 245 212 134 90 88
62 21 4 0 7 209 463 738 731 865 1093 1306 1629 1829 1715 1645 1551 1309 1281 1103 927 1129 916 929 644 440 424 326 327 278 102 63
167 87 62 66 51 68 249 531 640 718 939 1489 1404 2074 1630 1748 1713 1565 1318 1055 897 908 938 811 739 315 328 695 433 249 334 137
194 194 193 209 227 183 87 90 179 305 681 653 890 1508 1636 1481 1480 1538 1253 1102 946 874 718 644 561 236 208 290 657 311 214 114
116 245 265 241 229 225 157 106 64 26 24 8 35 126 196 616 1223 1204 1204 1165 973 922 827 640 502 334 196 141 222 270 200 95
138 120 121 195 205 202 154 91 21 1 0 0 0 0 0 0 10 626 1159 910 983 713 789 712 476 385 282 114 295 253 200 61
38 51 43 82 43 35 36 34 25 2 0 0 17 0 1 17 93 207 494 946 785 835 533 610 517 468 340 322 466 136 89 51
0 0 1 0 22 32 30 1 0 0 0 0 12 53 65 21 28 365 292 716 833 741 439 367 415 427 388 273 422 135 0 4
4 0 0 0 0 0 0 0 0 5 4 15 40 48 122 166 275 74 532 624 237 309 322 146 273 404 464 249 164 72 27 0
0 0 0 0 0 0 0 0 1 12 9 19 24 24 13 16 21 48 96 115 226 61 75 143 184 343 415 151 137 80 46 1
0 0 0 0 0 0 0 0 0 7 9 9 14 10 13 3 8 55 39 41 26 16 18 117 153 67 361 22 81 81 8 12
0 0 0 0 0 0 0 0 0 0 0 0 0 0 1 12 4 1 0 1 0 0 29 55 36 16 87 10 39 96 17 8
0 0 0 0 0 0 0 0 0 0 0 0 0 1 7 10 10 2 2 8 3 13 19 1 16 0 14 0 7 48 16 19

GFSFLT1_con_mucape_117.txt.gz
CAPE
0 0 0 0 0 1153 2043 1671 1556 1429 1361 1060 926 795 874 971 1031 1019 844 876 1055 1081 1002 959 1038 760 1063 526 367 240 170 258
0 0 0 0 0 675 1890 1947 1598 1344 1400 1092 755 845 629 636 963 985 729 779 896 1074 986 862 908 693 1140 699 419 274 151 138
0 0 0 0 0 112 1827 2101 1985 1485 1526 1367 1384 1188 996 803 749 740 835 918 673 934 948 852 807 902 697 929 452 272 152 128
0 0 0 0 0 0 1437 1981 2259 2004 1790 1593 1456 1405 1349 1130 984 835 908 1029 751 700 751 754 736 699 916 686 431 292 190 78
0 0 0 0 0 0 117 1782 2189 2070 1642 1793 1546 1555 1412 1451 1394 1090 1586 938 753 782 592 629 635 553 502 277 580 357 187 48
62 23 0 0 0 0 0 114 1788 1678 1700 1773 1698 1723 1868 1634 1533 1332 1142 1402 906 878 824 788 687 528 535 433 219 173 299 291
88 79 52 31 5 4 9 210 728 1331 1451 1905 1807 1966 1801 1674 1574 1570 1534 1325 1215 1104 1093 941 838 640 564 466 319 289 312 194
109 153 125 185 109 84 121 145 185 248 1028 1349 1635 1545 1587 1528 1579 1658 1592 1682 1280 1329 1184 981 959 853 552 600 454 356 260 188
120 185 182 173 250 222 223 93 130 268 589 783 796 1257 1336 1518 1804 1413 1465 1526 1421 1187 940 927 934 850 662 877 396 229 319 223
116 174 246 229 215 340 480 427 371 463 396 946 706 1039 1342 1442 1575 1582 1290 1263 1385 1229 871 848 918 1104 965 1290 805 245 168 126
85 166 193 264 312 292 251 237 339 359 371 525 609 753 992 1118 1052 1303 1100 1068 1107 1001 872 812 1064 995 841 1110 843 259 182 183
88 159 258 297 313 280 324 229 157 119 122 103 91 105 221 294 392 665 961 785 920 726 691 673 603 731 582 945 1022 287 183 65
26 118 124 193 225 306 269 241 235 122 39 29 1 0 0 0 0 1 34 634 538 486 446 443 478 506 517 460 378 371 170 48
3 91 19 217 165 143 154 138 143 59 63 27 12 41 9 8 11 33 27 81 266 373 406 416 719 579 518 385 312 347 138 151
0 0 0 1 12 16 44 30 14 18 27 36 22 14 38 250 189 43 117 98 185 124 223 324 579 473 368 398 358 333 243 229
0 0 0 0 0 0 0 0 0 0 0 9 14 7 41 8 0 19 151 80 12 61 285 341 252 170 54 67 86 208 185 87
0 0 0 0 0 0 0 0 0 0 0 0 5 6 19 28 2 5 16 33 17 10 66 134 102 126 68 49 116 71 31 3
0 0 0 0 0 0 0 0 0 0 0 0 0 0 0 5 19 16 12 5 9 1 30 48 44 25 8 30 88 58 14 0
0 0 0 0 0 0 0 0 0 0 0 0 0 0 1 10 9 1 11 6 4 3 4 1 6 8 21 17 10 30 19 13

GFSFLT1_con_mucape_123.txt.gz
CAPE
4 1 0 0 0 0 0 0 0 0 2590 2353 2058 2037 1889 1732 2005 2152 2189 2137 2432 2253 1923 1844 2072 2011 1364 1692 1818 1586 1542 1125
0 0 0 0 0 0 0 0 0 0 2120 2337 2295 2085 1996 2020 1721 2231 2087 1887 2613 2400 2124 1752 1880 1917 1431 1420 1612 1707 1424 1527
0 0 4 35 14 31 49 0 0 0 14 2295 2172 1964 1944 1978 1761 2170 2533 1944 1742 2051 1928 1872 1687 1862 1410 1445 1526 1422 1680 1649
0 0 0 0 0 0 6 5 20 0 26 1980 1811 2222 1949 1800 1681 1999 2507 2123 1579 2247 1937 1671 1691 1631 1400 1607 1391 1240 1420 1445
0 0 0 0 0 0 0 2 2 0 37 659 1715 1909 1746 1468 1714 1794 2261 2488 1670 2432 1768 1670 1801 1677 1307 1647 1406 1305 1283 741
0 0 0 0 0 0 0 0 14 9 0 551 2041 1637 2148 1894 1978 2013 2301 2482 2087 1497 1812 1740 1492 1714 1382 1779 1296 1244 1398 933
0 0 0 9 3 2 33 23 0 1 4 970 2344 1681 2162 1562 2032 2406 2201 1976 1898 2313 1583 1735 1491 1461 1231 1851 1374 1234 1192 1135
0 0 0 73 87 68 111 101 17 89 253 882 863 1380 1433 2157 1660 1910 1901 1505 1467 2069 2322 2197 1477 1230 1130 1810 1816 1328 1237 837
0 0 0 6 55 100 107 154 238 324 202 639 1137 1021 843 946 528 35 1521 1627 1419 1594 1648 1868 1885 1448 1557 1464 1451 1343 1120 847
0 0 2 107 22 0 153 208 286 265 608 417 766 994 985 478 77 1 1029 1622 1436 1780 1771 1468 1482 1309 1150 1522 1271 1634 1534 1505
0 0 82 149 1 77 229 309 294 298 464 609 527 755 822 421 15 28 447 890 1199 1366 1675 1667 1148 1371 1683 1621 1399 1158 1316 1135
0 0 101 165 153 48 172 259 234 294 286 244 308 438 472 28 28 35 261 634 986 1200 1376 1158 1092 999 1227 1293 1309 1294 1115 868
0 0 9 177 208 220 141 317 145 117 74 128 26 20 0 43 118 154 224 284 537 703 792 1192 763 802 745 1063 933 1070 674 716
0 0 46 78 162 187 1 6 54 2 4 18 19 4 15 27 44 41 41 82 159 171 475 1001 698 535 422 496 394 363 349 472
0 0 0 47 127 112 158 69 16 7 25 1 0 0 1 0 4 8 64 151 208 138 68 167 353 477 626 476 429 397 311 299
0 0 0 0 0 5 56 48 68 59 47 49 3 6 6 0 34 23 6 9 11 70 193 132 109 13 1 10 147 152 74 137
0 0 0 0 0 0 0 0 0 0 0 51 30 32 0 0 0 0 0 1 12 7 8 28 10 4 0 11 68 32 64 39
0 0 0 0 0 0 0 0 0 0 0 0 0 0 0 0 0 6 6 1 8 8 17 12 16 13 9 8 9 6 56 15
0 0 0 0 0 0 0 0 0 0 0 0 0 0 0 0 0 0 0 0 0 2 10 18 15 20 13 5 3 0 2 17

GFSFLT1_con_mucape_126.txt.gz
CAPE
0 0 0 0 0 0 0 0 0 0 0 753 1830 1574 1346 1753 1792 1862 1942 2163 2227 1867 2003 1966 2039 1554 1267 1422 1309 1269 1185 830
0 0 0 0 0 0 0 0 0 0 0 314 1401 1447 1107 1522 1578 1932 1947 1904 1981 1707 1598 2037 2017 1834 1659 1567 1546 1417 1372 1194
0 0 0 0 0 0 0 0 0 0 0 0 313 986 1101 1175 1508 1570 1948 1813 1859 1720 2037 1520 1550 1507 1620 1314 1294 1456 1444 1196
0 0 0 0 0 0 0 0 0 0 0 0 0 0 894 855 1267 1327 2220 1985 1875 1756 1681 2107 1395 1227 1499 1136 1554 1566 1290 1112
0 0 0 0 0 0 0 0 0 0 0 0 0 0 312 707 1140 1243 2082 1973 1822 1681 1428 2293 1970 1869 1361 1502 1566 1497 1520 1213
0 0 0 0 0 0 0 0 0 0 0 3 6 0 340 376 1061 1173 1572 1907 1618 1543 1321 1913 1921 2068 1353 1524 1688 1667 1595 1075
0 0 0 0 0 0 0 0 0 0 0 0 21 2 67 573 961 890 1296 1817 1631 1363 1154 1290 1705 1835 1490 1366 1790 1529 1438 1129
0 0 0 0 0 0 0 0 0 0 1 4 14 20 202 669 730 959 1094 1519 1601 1403 1046 1312 1633 1630 1750 1496 1630 1428 1432 1489
0 0 0 0 0 0 0 0 8 22 0 8 11 7 4 191 335 250 892 1304 1495 1557 1194 933 1630 1545 1499 1212 1533 1584 1435 1091
0 0 0 0 0 0 0 0 11 10 15 18 60 40 17 436 250 0 247 850 806 896 1291 1538 1389 1346 1087 1069 1151 851 821 712
0 0 0 0 0 0 0 0 12 26 45 78 38 120 52 61 204 132 55 273 0 376 542 774 1139 1440 1551 1296 1356 978 858 709
0 0 0 0 0 0 0 7 14 18 151 256 289 253 146 25 82 14 53 52 70 171 434 598 640 739 988 1103 1348 1363 1160 1188
0 0 0 0 0 0 0 32 53 1 188 283 243 327 162 86 59 160 21 27 9 20 207 440 551 697 795 812 952 1075 1000 961
0 0 0 0 0 0 4 0 10 7 155 76 96 10 48 58 1 0 1 0 0 15 0 15 226 447 579 584 719 1008 931 690
0 0 0 0 0 0 0 15 1 5 0 0 1 0 3 1 1 0 14 5 6 23 29 82 133 372 499 559 707 586 600 707
0 0 0 0 0 0 0 0 0 0 0 0 0 0 0 3 0 0 27 26 21 66 7 12 20 326 426 480 375 361 467 464
0 0 0 0 0 0 0 0 0 0 0 0 0 0 0 0 0 0 1 21 3 225 85 139 95 143 160 10 4 0 11 25
0 0 0 0 0 0 0 0 0 0 0 0 0 0 0 0 0 0 2 1 4 1 11 14 9 14 17 13 14 3 3 1
0 0 0 0 0 0 0 0 0 0 0 0 0 0 0 0 0 0 0 0 0 0 0 0 1 7 1 9 14 14 14 11

GFSFLT1_con_mucape_129.txt.gz
CAPE
0 0 0 0 0 0 0 0 0 0 0 0 0 362 1208 1007 932 1396 2146 2164 2293 2322 1935 1607 1698 1594 1188 1135 1025 838 763 688
0 0 0 0 0 0 0 0 0 0 0 0 0 0 4 921 915 1068 1432 2024 2271 2224 2066 1936 1796 1617 1210 1058 943 878 892 976
0 0 0 0 0 0 0 0 0 0 0 0 0 0 0 0 174 838 1104 1341 1926 2094 1888 1994 1862 1632 1308 1125 864 967 907 1076
0 0 0 0 0 0 0 0 0 0 0 0 0 0 0 0 0 222 776 1189 1564 1851 1852 1746 1892 1716 1417 1144 1068 1023 1141 1168
0 0 0 0 0 0 0 0 0 0 0 0 0 0 0 0 0 0 325 831 1387 1520 1520 1366 1612 1808 1596 1295 1231 1233 1141 1197
0 0 0 0 0 0 0 0 0 0 0 0 0 0 0 0 0 0 314 480 1152 1373 1329 1140 1075 1425 1543 1426 1191 550 837 901
0 0 0 0 0 0 0 0 0 0 0 0 0 0 0 0 0 0 110 374 621 1355 1393 1029 899 984 794 800 746 659 923 1084
0 0 0 0 0 0 0 0 0 0 0 0 0 0 19 11 0 0 49 221 192 1056 1318 1132 849 869 1461 1414 1315 1146 1146 870
0 0 0 0 0 0 0 0 0 0 0 0 0 0 1 11 3 35 50 114 126 402 1174 1192 882 721 738 1131 1364 985 1287 1134
0 0 0 0 0 0 0 0 0 0 0 1 0 1 2 7 30 77 9 57 0 0 1000 958 812 757 709 1110 1122 929 1353 1051
0 0 0 0 0 0 0 2 0 0 0 1 13 12 19 73 102 117 1 14 11 0 729 717 759 678 709 807 973 1011 770 1167
0 0 0 0 0 0 0 0 0 0 1 4 7 17 88 63 153 125 53 4 2 0 311 577 608 630 719 720 764 814 731 901
0 0 0 0 0 0 0 0 0 0 0 0 0 24 164 164 131 9 11 67 10 0 26 132 266 297 394 449 583 684 923 848
0 0 0 0 0 0 0 0 0 0 0 2 48 143 262 182 40 7 9 0 3 0 3 2 0 111 88 142 291 214 373 526
0 0 0 0 0 0 0 0 0 0 0 0 30 40 109 87 21 2 0 6 4 12 3 0 6 0 27 77 94 194 325 342
0 0 0 0 0 0 0 0 0 0 0 1 2 30 5 10 22 20 36 18 0 0 3 2 0 0 28 5 53 102 161 195
0 0 0 0 0 0 0 0 0 0 0 0 0 0 0 1 1 0 0 20 30 41 40 27 0 22 9 12 18 1 2 15
0 0 0 0 0 0 0 0 0 0 0 0 0 0 0 0 0 0 0 0 0 0 1 18 1 5 7 2 2 0 2 0
0 0 0 0 0 0 0 0 0 0 0 0 0 0 0 0 0 0 0 0 0 0 0 0 0 0 0 0 0 0 0 0

GFSFLT1_con_mucape_132.txt.gz
CAPE
0 0 0 0 0 0 0 0 0 0 0 0 0 0 0 0 0 409 712 976 1374 1462 1533 1609 1753 1419 1286 1129 965 912 879 815
0 0 0 0 0 0 0 0 0 0 0 0 0 0 0 0 0 0 96 632 784 1200 1445 1563 1736 1474 1315 1215 956 964 946 775
0 0 0 0 0 0 0 0 0 0 0 0 0 0 0 0 0 0 0 277 395 856 1227 1435 1651 1510 1281 1250 1064 912 897 676
0 0 0 0 0 0 0 0 0 0 0 0 0 0 0 0 0 0 0 5 201 520 839 1319 1450 1472 1259 1297 1101 827 763 651
0 0 0 0 0 0 0 0 0 0 0 0 0 0 0 0 0 0 0 0 3 215 536 895 1111 1188 1308 1322 1130 877 731 587
0 0 0 0 0 0 0 0 0 0 0 0 0 0 0 0 0 0 0 0 0 0 161 469 869 1106 1340 1333 1347 1034 803 610
0 0 0 0 0 0 0 0 0 0 0 0 0 0 0 0 0 0 0 0 0 0 29 59 564 1025 1212 1402 1373 1231 907 747
0 0 0 0 0 0 0 0 0 0 0 0 0 0 0 0 0 0 0 0 0 0 0 17 51 444 1042 1200 1307 1004 952 910
0 0 0 0 0 0 0 0 0 0 0 0 0 0 0 0 1 1 1 1 0 0 0 0 3 8 852 1008 1168 1173 1151 720
0 0 0 0 0 0 0 0 0 0 0 0 0 0 0 0 2 11 14 11 28 70 0 0 1 1 366 644 653 1206 1322 837
0 0 0 0 0 0 0 0 0 0 0 0 0 0 0 0 6 4 18 61 135 87 0 0 31 269 376 644 684 793 547 631
0 0 0 0 0 0 0 0 0 0 0 0 1 3 7 6 15 17 63 53 143 119 17 0 0 29 273 653 555 674 629 738
0 0 0 0 0 0 0 0 0 0 0 0 0 2 0 16 121 79 21 73 32 0 0 20 1 22 7 473 376 347 451 445
0 0 0 0 0 0 0 0 0 0 0 0 0 0 0 3 14 147 182 121 128 50 0 0 0 0 13 145 208 149 333 313
0 0 0 0 0 0 0 0 0 0 0 0 0 0 0 13 63 148 236 151 88 50 0 5 2 0 0 1 3 14 161 195
0 0 0 0 0 0 0 0 0 0 0 0 0 0 0 0 83 14 66 108 49 1 0 3 0 0 0 0 0 34 56 14
0 0 0 0 0 0 0 0 0 0 0 0 0 0 0 0 0 0 1 2 0 0 0 0 0 0 0 0 0 0 0 0
0 0 0 0 0 0 0 0 0 0 0 0 0 0 0 0 0 0 0 0 0 0 0 0 0 0 0 0 0 0 0 0
0 0 0 0 0 0 0 0 0 0 0 0 0 0 0 0 0 0 0 0 0 0 0 0 0 0 0 0 0 0 0 0

GFSFLT1_con_mucape_135.txt.gz
CAPE
0 0 0 0 0 0 0 0 0 0 0 0 0 0 0 0 0 0 0 0 21 825 843 957 1185 1167 1215 1284 1086 840 645 425
0 0 0 0 0 0 0 0 0 0 0 0 0 0 0 0 0 0 0 0 0 191 834 850 882 960 1017 1099 1013 911 677 536
0 0 0 0 0 0 0 0 0 0 0 0 0 0 0 0 0 0 0 0 1 4 413 607 474 814 926 922 901 777 700 638
0 0 0 0 0 0 0 0 0 0 0 0 0 0 0 0 0 0 0 0 0 0 0 248 268 749 820 730 770 782 642 597
0 0 0 0 0 0 0 0 0 0 0 0 0 0 0 0 0 0 0 0 0 0 0 0 273 542 739 676 648 734 690 476
0 0 0 0 0 0 0 0 0 0 0 0 0 0 0 0 0 0 0 0 0 0 0 0 4 51 72 686 626 685 721 527
0 0 0 0 0 0 0 0 0 0 0 0 0 0 0 0 0 0 0 0 0 0 10 0 0 1 25 40 534 542 618 615
0 0 0 0 0 0 0 0 0 0 0 0 0 0 0 0 0 0 0 0 0 0 1 0 0 0 7 4 245 455 489 540
0 0 0 0 0 0 0 0 0 0 0 0 0 0 0 0 0 0 0 0 0 0 0 0 0 0 0 3 39 211 386 465
0 0 0 0 0 0 0 0 0 0 0 0 0 0 0 0 0 0 0 6 1 41 6 0 0 0 0 0 0 0 398 480
0 0 0 0 0 0 0 0 0 0 0 0 0 0 0 3 7 0 1 6 11 19 8 0 30 0 1 0 0 0 228 574
0 0 0 0 0 0 0 0 0 0 0 0 0 0 0 0 2 6 10 12 6 10 7 2 0 0 5 1 0 20 302 375
0 0 0 0 0 0 0 0 0 0 0 0 0 0 0 1 4 14 11 14 12 8 6 33 11 40 124 45 86 39 1 276
0 0 0 0 0 0 0 0 0 0 0 0 0 0 0 0 0 28 20 49 75 37 83 17 1 7 83 54 86 14 61 35
0 0 0 0 0 0 0 0 0 0 0 0 0 0 0 0 0 0 12 6 5 102 107 88 37 52 19 42 3 60 152 26
0 0 0 0 0 0 0 0 0 0 0 0 0 0 0 0 0 0 0 1 5 72 91 147 76 23 2 0 0 0 0 0
0 0 0 0 0 0 0 0 0 0 0 0 0 0 0 0 0 0 0 0 0 2 32 11 3 4 0 0 0 0 0 0
0 0 0 0 0 0 0 0 0 0 0 0 0 0 0 0 0 0 0 0 0 0 0 0 0 0 0 0 0 0 0 0
0 0 0 0 0 0 0 0 0 0 0 0 0 0 0 0 0 0 0 0 0 0 0 0 0 0 0 0 0 0 0 0

GFSFLT1_con_mucape_138.txt.gz
CAPE
0 0 0 0 0 0 0 0 0 0 0 0 0 0 0 0 0 0 0 0 0 0 0 47 794 783 784 1031 1454 1618 1104 529
0 0 0 0 0 0 0 0 0 0 0 0 0 0 0 0 0 0 0 0 0 0 0 0 215 22 242 709 1142 1355 1255 533
0 0 0 0 0 0 0 0 0 0 0 0 0 0 0 0 0 0 0 0 0 0 0 8 5 79 0 501 1220 1099 914 660
0 0 0 0 0 0 0 0 0 0 0 0 0 0 0 0 0 0 0 0 0 0 0 0 0 33 180 297 458 708 846 594
0 0 0 0 0 0 0 0 0 0 0 0 0 0 0 0 0 0 0 0 0 0 0 0 0 3 137 282 368 477 536 319
0 0 0 0 0 0 0 0 0 0 0 0 0 0 0 0 0 0 0 0 0 0 0 0 0 0 63 64 202 398 494 304
0 0 0 0 0 0 0 0 0 0 0 0 0 0 0 0 0 0 0 0 0 0 0 0 7 0 0 47 31 1 49 341
0 0 0 0 0 0 0 0 0 0 0 0 0 0 0 0 0 0 0 0 0 0 0 0 0 0 0 0 41 21 7 124
0 0 0 0 0 0 0 0 0 0 0 0 0 0 0 0 0 0 0 0 0 0 0 0 0 3 0 0 53 2 4 0
0 0 0 0 0 0 0 0 0 0 0 0 0 0 0 0 0 0 0 0 0 1 6 12 1 1 0 0 17 45 15 0
0 0 0 0 0 0 0 0 0 0 0 0 0 0 0 0 0 0 3 0 12 16 5 8 12 0 0 0 0 7 11 11
0 0 0 0 0 0 0 0 0 0 0 0 0 0 0 0 0 2 0 0 41 27 6 13 16 5 0 0 0 0 0 1
0 0 0 0 0 0 0 0 0 0 0 0 0 0 0 0 0 0 0 3 58 17 8 10 12 3 3 0 1 5 3 0
0 0 0 0 0 0 0 0 0 0 0 0 0 0 0 0 0 4 1 3 6 6 7 3 1 1 14 84 89 2 9 0
0 0 0 0 0 0 0 0 0 0 0 0 0 0 0 0 0 0 1 0 18 17 24 44 100 143 138 102 120 99 74 14
0 0 0 0 0 0 0 0 0 0 0 0 0 0 0 0 0 0 0 0 0 4 22 43 32 63 132 128 8 33 84 98
0 0 0 0 0 0 0 0 0 0 0 0 0 0 0 0 0 0 0 0 0 0 0 0 0 0 0 0 0 0 0 2
0 0 0 0 0 0 0 0 0 0 0 0 0 0 0 0 0 0 0 0 0 0 0 0 0 0 0 0 0 0 0 0
0 0 0 0 0 0 0 0 0 0 0 0 0 0 0 0 0 0 0 0 0 0 0 0 0 0 0 0 0 0 0 0

GFSFLT1_con_mucape_141.txt.gz
CAPE
0 0 0 0 0 0 0 0 0 0 0 0 0 0 0 0 0 0 0 0 0 0 0 0 0 0 4 746 747 596 611 1028
0 0 0 0 0 0 0 0 0 0 0 0 0 0 0 0 0 0 0 0 0 0 0 0 0 0 0 68 678 437 336 673
0 0 0 0 0 0 0 0 0 0 0 0 0 0 0 0 0 0 0 0 0 0 0 0 0 18 27 8 440 323 206 502
0 0 0 0 0 0 0 0 0 0 0 0 0 0 0 0 0 0 0 0 0 0 0 0 0 0 19 2 24 1 0 135
0 0 0 0 0 0 0 0 0 0 0 0 0 0 0 0 0 0 0 0 0 0 0 0 0 0 3 18 44 5 0 18
0 0 0 0 0 0 0 0 0 0 0 0 0 0 0 0 0 0 0 0 0 0 0 0 0 0 0 0 41 181 60 143
0 0 0 0 0 0 0 0 0 0 0 0 0 0 0 0 0 0 0 0 0 0 0 0 0 0 0 3 26 293 362 153
0 0 0 0 0 0 0 0 0 0 0 0 0 0 0 0 0 0 0 0 0 0 0 0 0 0 0 16 0 147 531 364
0 0 0 0 0 0 0 0 0 0 0 0 0 0 0 0 0 0 0 0 0 0 0 0 0 0 10 1 55 63 456 208
0 0 0 0 0 0 0 0 0 0 0 0 0 0 0 0 0 0 0 0 4 0 0 1 0 0 26 23 85 105 438 172
0 0 0 0 0 0 0 0 0 0 0 0 0 0 0 0 0 0 0 0 0 3 13 16 10 2 7 4 13 152 403 405
0 0 0 0 0 0 0 0 0 0 0 0 0 0 0 0 0 0 0 0 0 2 6 28 13 33 44 21 4 29 157 136
0 0 0 0 0 0 0 0 0 0 0 0 0 0 0 0 0 0 0 0 0 20 16 26 7 5 24 26 22 13 7 8
0 0 0 0 0 0 0 0 0 0 0 0 0 0 0 0 0 0 0 0 0 0 3 2 23 17 14 5 4 18 17 7
0 0 0 0 0 0 0 0 0 0 0 0 0 0 0 0 0 0 0 0 0 0 0 8 2 8 2 6 5 7 11 10
0 0 0 0 0 0 0 0 0 0 0 0 0 0 0 0 0 0 0 0 0 0 0 0 0 0 3 7 36 13 97 71
0 0 0 0 0 0 0 0 0 0 0 0 0 0 0 0 0 0 0 0 0 0 0 0 0 0 0 0 0 0 0 9
0 0 0 0 0 0 0 0 0 0 0 0 0 0 0 0 0 0 0 0 0 0 0 0 0 0 0 0 0 0 0 0
0 0 0 0 0 0 0 0 0 0 0 0 0 0 0 0 0 0 0 0 0 0 0 0 0 0 0 0 0 0 0 0

GFSFLT1_con_mucape_144.txt.gz
CAPE
0 0 0 0 0 0 0 0 0 0 0 0 0 0 0 0 0 0 0 0 0 0 0 0 0 0 0 0 25 616 1201 1073
0 0 0 0 0 0 0 0 0 0 0 0 0 0 0 0 0 0 0 0 0 0 0 0 0 0 0 0 0 56 986 1589
0 0 0 0 0 0 0 0 0 0 0 0 0 0 0 0 0 0 0 0 0 0 0 0 0 0 0 12 12 58 859 1915
0 0 0 0 0 0 0 0 0 0 0 0 0 0 0 0 0 0 0 0 0 0 0 0 0 0 0 0 9 38 212 1112
0 0 0 0 0 0 0 0 0 0 0 0 0 0 0 0 0 0 0 0 0 0 0 0 0 0 0 0 0 51 83 219
0 0 0 0 0 0 0 0 0 0 0 0 0 0 0 0 0 0 0 0 0 0 0 0 0 0 0 0 0 6 91 422
0 0 0 0 0 0 0 0 0 0 0 0 0 0 0 0 0 0 0 0 0 0 0 0 0 0 0 0 0 0 57 185
0 0 0 0 0 0 0 0 0 0 0 0 0 0 0 0 0 0 0 0 0 0 0 0 0 0 0 0 0 6 50 29
0 0 0 0 0 0 0 0 0 0 0 0 0 0 0 0 0 0 0 0 0 0 0 1 0 0 0 0 0 5 99 228
0 0 0 0 0 0 0 0 0 0 0 0 0 0 0 0 0 0 0 0 0 0 0 0 2 1 0 0 0 48 76 248
0 0 0 0 0 0 0 0 0 0 0 0 0 0 0 0 0 0 0 0 0 0 6 3 5 10 6 9 12 26 64 423
0 0 0 0 0 0 0 0 0 0 0 0 0 0 0 0 0 0 0 0 0 0 1 7 8 2 4 11 28 30 72 60
0 0 0 0 0 0 0 0 0 0 0 0 0 0 0 0 0 0 0 0 0 0 0 2 13 0 25 45 42 70 83 50
0 0 0 0 0 0 0 0 0 0 0 0 0 0 0 0 0 0 0 0 0 0 0 0 13 3 8 41 60 71 63 54
0 0 0 0 0 0 0 0 0 0 0 0 0 0 0 0 0 0 0 0 0 0 0 0 6 10 3 0 10 59 53 15
0 0 0 0 0 0 0 0 0 0 0 0 0 0 0 0 0 0 0 0 0 0 0 0 0 0 1 10 0 2 0 2
0 0 0 0 0 0 0 0 0 0 0 0 0 0 0 0 0 0 0 0 0 0 0 0 0 0 0 0 0 0 0 0
0 0 0 0 0 0 0 0 0 0 0 0 0 0 0 0 0 0 0 0 0 0 0 0 0 0 0 0 0 0 0 0
0 0 0 0 0 0 0 0 0 0 0 0 0 0 0 0 0 0 0 0 0 0 0 0 0 0 0 0 0 0 0 0